Regional Weather Roundup
Issued by NWS

Home | Current Version | Previous Version | Graphics & Text | Print | Product List | Glossary On
Versions: 1 2 3 4 5 6 7 8 9 10 11 12 13 14 15 16 17 18 19 20 21 22 23 24 25 26 27 28 29 30 31 32 33 34 35 36 37 38 39 40 41 42 43 44 45 46 47 48 49 50
978
ASUS43 KBIS 222010
RWRND

NORTH DAKOTA REGIONAL WEATHER ROUNDUP
NATIONAL WEATHER SERVICE BISMARCK ND
200 PM CST MON JAN 22 2018

NOTE: "FAIR" INDICATES FEW OR NO CLOUDS BELOW 12,000 FEET WITH NO
SIGNIFICANT WEATHER AND/OR OBSTRUCTIONS TO VISIBILITY.


NDZ001>003-009>011-017-222100-
NORTHWEST NORTH DAKOTA

CITY           SKY/WX    TMP DP  RH WIND       PRES   REMARKS
WILLISTON      SUNNY     25  17  72 SW9       29.99F WCI  15
MINOT          CLOUDY    21  18  88 SE9       30.00F FOG     WCI  11
MINOT AFB      CLOUDY    19  17  91 S9        29.99F FOG     WCI   9
$$

NDZ018>021-031>035-040>046-222100-
SOUTHWEST NORTH DAKOTA

CITY           SKY/WX    TMP DP  RH WIND       PRES   REMARKS
BISMARCK       CLOUDY    24  22  91 NW5       30.02F FOG     WCI  18
DICKINSON      SUNNY     31  20  63 W6        29.93F
GARRISON         N/A     15  13  91 SE6       30.00F WCI   6
HETTINGER ARPT SUNNY     38  20  48 NW10      29.95F
$$

NDZ004>008-012>016-024-026-027-054-222100-
NORTHEAST NORTH DAKOTA

CITY           SKY/WX    TMP DP  RH WIND       PRES   REMARKS
GRAND FORKS    CLOUDY    26  22  84 NE15      30.03F WCI  14
GRND FRKS AFB  MIX PCPN  25  21  86 NE12      30.03F WCI  14
DEVILS LAKE    CLOUDY    22  20  92 N9        30.03F WCI  12
$$

NDZ022-023-025-028>030-036>039-047>053-222100-
SOUTHEAST NORTH DAKOTA

CITY           SKY/WX    TMP DP  RH WIND       PRES   REMARKS
FARGO          CLOUDY    28  23  81 N16G28    29.95F WCI  16
JAMESTOWN      CLOUDY    23  21  92 N15       29.98F WCI  10
$$





USA.gov is the U.S. government's official web portal to all federal, state and local government web resources and services.